Time,TemperatureF,DewpointF,PressureIn,WindDirection,WindDirectionDegrees,WindSpeedMPH,WindSpeedGustMPH,Humidity,HourlyPrecipIn,Conditions,Clouds,dailyrainin,SoftwareType,DateUTC
2013-03-15 00:00:00,33.0,12.4,30.00,NW,320,2.0,5.0,42,0.00,,CLR,0.00,VWS V14.01,2013-03-15 04:00:00,
2013-03-15 00:05:00,32.9,12.9,30.00,WNW,303,1.0,6.0,43,0.00,,CLR,0.00,VWS V14.01,2013-03-15 04:05:00,
2013-03-15 00:10:00,32.9,12.9,30.01,WNW,302,0.0,6.0,43,0.00,,CLR,0.00,VWS V14.01,2013-03-15 04:10:00,
2013-03-15 00:15:00,32.7,12.7,30.01,WSW,240,0.0,6.0,43,0.00,,CLR,0.00,VWS V14.01,2013-03-15 04:15:00,
2013-03-15 00:20:00,32.6,13.1,30.01,West,280,2.0,6.0,44,0.00,,CLR,0.00,VWS V14.01,2013-03-15 04:20:00,
2013-03-15 00:25:00,32.5,13.0,30.01,NW,317,2.0,7.0,44,0.00,,CLR,0.00,VWS V14.01,2013-03-15 04:25:00,
2013-03-15 00:30:00,32.5,13.0,30.01,WNW,284,1.0,3.0,44,0.00,,CLR,0.00,VWS V14.01,2013-03-15 04:30:00,
2013-03-15 00:35:00,32.4,12.9,30.02,WNW,288,3.0,6.0,44,0.00,,CLR,0.00,VWS V14.01,2013-03-15 04:35:00,
2013-03-15 00:40:00,32.5,13.0,30.01,WNW,299,2.0,6.0,44,0.00,,CLR,0.00,VWS V14.01,2013-03-15 04:40:00,
2013-03-15 00:45:00,32.3,13.4,30.01,WNW,296,4.0,6.0,45,0.00,,CLR,0.00,VWS V14.01,2013-03-15 04:45:00,
2013-03-15 00:50:00,32.4,12.9,30.01,WNW,297,3.0,13.0,44,0.00,,CLR,0.00,VWS V14.01,2013-03-15 04:50:00,
2013-03-15 00:55:00,32.4,13.4,30.01,NNW,330,7.0,13.0,45,0.00,,CLR,0.00,VWS V14.01,2013-03-15 04:55:00,
2013-03-15 01:00:00,32.3,13.4,30.01,NW,325,4.0,5.0,45,0.00,,CLR,0.00,VWS V14.01,2013-03-15 05:00:00,
2013-03-15 01:05:00,32.2,13.3,30.01,NW,313,4.0,11.0,45,0.00,,CLR,0.00,VWS V14.01,2013-03-15 05:05:00,
2013-03-15 01:10:00,32.3,13.4,30.01,NNE,17,2.0,11.0,45,0.00,,CLR,0.00,VWS V14.01,2013-03-15 05:10:00,
2013-03-15 01:15:00,32.3,12.8,30.01,WNW,292,5.0,11.0,44,0.00,,CLR,0.00,VWS V14.01,2013-03-15 05:15:00,
2013-03-15 01:20:00,32.2,13.3,30.01,NNW,341,5.0,11.0,45,0.00,,CLR,0.00,VWS V14.01,2013-03-15 05:20:00,
2013-03-15 01:25:00,32.1,13.2,30.01,NW,306,5.0,11.0,45,0.00,,CLR,0.00,VWS V14.01,2013-03-15 05:25:00,
2013-03-15 01:30:00,31.9,13.0,30.01,NW,308,4.0,5.0,45,0.00,,CLR,0.00,VWS V14.01,2013-03-15 05:30:00,
2013-03-15 01:36:00,31.7,13.3,30.01,NNW,328,4.0,10.0,46,0.00,,CLR,0.00,VWS V14.01,2013-03-15 05:36:00,
2013-03-15 01:41:00,31.9,13.5,30.01,West,267,7.0,12.0,46,0.00,,CLR,0.00,VWS V14.01,2013-03-15 05:41:00,
2013-03-15 01:46:00,31.9,13.0,30.01,NW,309,8.0,14.0,45,0.00,,CLR,0.00,VWS V14.01,2013-03-15 05:46:00,
2013-03-15 01:51:00,31.9,13.0,30.02,NNW,327,6.0,14.0,45,0.00,,CLR,0.00,VWS V14.01,2013-03-15 05:51:00,
2013-03-15 01:56:00,31.9,13.0,30.02,WNW,284,4.0,14.0,45,0.00,,CLR,0.00,VWS V14.01,2013-03-15 05:56:00,
2013-03-15 02:01:00,31.8,12.9,30.02,NNW,336,4.0,6.0,45,0.00,,CLR,0.00,VWS V14.01,2013-03-15 06:01:00,
2013-03-15 02:06:00,31.7,13.3,30.02,WNW,297,1.0,6.0,46,0.00,,CLR,0.00,VWS V14.01,2013-03-15 06:06:00,
2013-03-15 02:11:00,31.5,13.1,30.02,NNW,328,4.0,6.0,46,0.00,,CLR,0.00,VWS V14.01,2013-03-15 06:11:00,
2013-03-15 02:16:00,31.4,13.5,30.02,NNW,333,10.0,10.0,47,0.00,,CLR,0.00,VWS V14.01,2013-03-15 06:16:00,
2013-03-15 02:21:00,31.4,13.5,30.02,NW,321,4.0,13.0,47,0.00,,CLR,0.00,VWS V14.01,2013-03-15 06:21:00,
2013-03-15 02:26:00,31.3,13.4,30.02,WNW,292,3.0,13.0,47,0.00,,CLR,0.00,VWS V14.01,2013-03-15 06:26:00,
2013-03-15 02:31:00,31.2,13.8,30.02,NW,310,2.0,6.0,48,0.00,,CLR,0.00,VWS V14.01,2013-03-15 06:31:00,
2013-03-15 02:36:00,31.1,14.2,30.02,WSW,253,3.0,11.0,49,0.00,,CLR,0.00,VWS V14.01,2013-03-15 06:36:00,
2013-03-15 02:41:00,31.0,14.1,30.02,WNW,292,4.0,11.0,49,0.00,,CLR,0.00,VWS V14.01,2013-03-15 06:41:00,
2013-03-15 02:46:00,30.9,14.0,30.02,West,279,2.0,11.0,49,0.00,,CLR,0.00,VWS V14.01,2013-03-15 06:46:00,
2013-03-15 02:51:00,30.9,14.0,30.02,WSW,242,3.0,11.0,49,0.00,,CLR,0.00,VWS V14.01,2013-03-15 06:51:00,
2013-03-15 02:56:00,30.8,13.9,30.02,NW,310,3.0,11.0,49,0.00,,CLR,0.00,VWS V14.01,2013-03-15 06:56:00,
2013-03-15 03:01:00,30.8,13.9,30.02,NW,312,6.0,14.0,49,0.00,,CLR,0.00,VWS V14.01,2013-03-15 07:01:00,
2013-03-15 03:07:00,30.9,14.0,30.02,NW,316,11.0,14.0,49,0.00,,CLR,0.00,VWS V14.01,2013-03-15 07:07:00,
2013-03-15 03:12:00,30.9,14.0,30.02,NNW,345,8.0,14.0,49,0.00,,CLR,0.00,VWS V14.01,2013-03-15 07:12:00,
2013-03-15 03:17:00,31.0,14.1,30.02,WNW,298,3.0,14.0,49,0.00,,CLR,0.00,VWS V14.01,2013-03-15 07:17:00,
2013-03-15 03:22:00,30.9,14.0,30.02,WSW,244,0.0,14.0,49,0.00,,CLR,0.00,VWS V14.01,2013-03-15 07:22:00,
2013-03-15 03:27:00,30.7,13.8,30.02,WSW,246,1.0,14.0,49,0.00,,CLR,0.00,VWS V14.01,2013-03-15 07:27:00,
2013-03-15 03:32:00,30.6,14.2,30.02,WSW,239,0.0,2.0,50,0.00,,CLR,0.00,VWS V14.01,2013-03-15 07:32:00,
2013-03-15 03:37:00,30.4,14.4,30.02,WSW,240,0.0,2.0,51,0.00,,CLR,0.00,VWS V14.01,2013-03-15 07:37:00,
2013-03-15 03:42:00,30.1,13.7,30.01,SW,220,5.0,9.0,50,0.00,,CLR,0.00,VWS V14.01,2013-03-15 07:42:00,
2013-03-15 03:47:00,30.2,14.3,30.01,SSW,192,2.0,9.0,51,0.00,,CLR,0.00,VWS V14.01,2013-03-15 07:47:00,
2013-03-15 03:52:00,30.2,14.3,30.01,WNW,289,6.0,9.0,51,0.00,,CLR,0.00,VWS V14.01,2013-03-15 07:52:00,
2013-03-15 03:57:00,30.4,14.4,30.01,WNW,302,1.0,12.0,51,0.00,,CLR,0.00,VWS V14.01,2013-03-15 07:57:00,
2013-03-15 04:02:00,30.4,14.4,30.01,NW,307,4.0,5.0,51,0.00,,CLR,0.00,VWS V14.01,2013-03-15 08:02:00,
2013-03-15 04:07:00,30.3,14.4,30.01,West,275,4.0,6.0,51,0.00,,CLR,0.00,VWS V14.01,2013-03-15 08:07:00,
2013-03-15 04:12:00,30.1,14.6,30.01,West,260,3.0,7.0,52,0.00,,CLR,0.00,VWS V14.01,2013-03-15 08:12:00,
2013-03-15 04:17:00,30.0,14.5,30.01,NW,325,4.0,7.0,52,0.00,,CLR,0.00,VWS V14.01,2013-03-15 08:17:00,
2013-03-15 04:22:00,29.9,14.9,30.01,WNW,301,2.0,8.0,53,0.00,,CLR,0.00,VWS V14.01,2013-03-15 08:22:00,
2013-03-15 04:27:00,29.8,14.8,30.00,West,275,2.0,8.0,53,0.00,,CLR,0.00,VWS V14.01,2013-03-15 08:27:00,
2013-03-15 04:32:00,29.9,14.9,30.00,NNW,333,6.0,10.0,53,0.00,,CLR,0.00,VWS V14.01,2013-03-15 08:32:00,
2013-03-15 04:37:00,29.8,15.2,30.00,NW,308,3.0,10.0,54,0.00,,CLR,0.00,VWS V14.01,2013-03-15 08:37:00,
2013-03-15 04:42:00,29.7,15.1,30.01,NNW,327,7.0,10.0,54,0.00,,CLR,0.00,VWS V14.01,2013-03-15 08:42:00,
2013-03-15 04:47:00,29.6,15.0,30.00,WNW,284,5.0,10.0,54,0.00,,CLR,0.00,VWS V14.01,2013-03-15 08:47:00,
2013-03-15 04:52:00,29.6,15.0,30.00,WNW,302,4.0,10.0,54,0.00,,CLR,0.00,VWS V14.01,2013-03-15 08:52:00,
2013-03-15 04:57:00,29.6,15.0,30.00,NW,312,5.0,10.0,54,0.00,,CLR,0.00,VWS V14.01,2013-03-15 08:57:00,
2013-03-15 05:02:00,29.7,15.1,30.00,WNW,287,4.0,6.0,54,0.00,,CLR,0.00,VWS V14.01,2013-03-15 09:02:00,
2013-03-15 05:07:00,29.6,15.4,30.00,WNW,286,3.0,10.0,55,0.00,,CLR,0.00,VWS V14.01,2013-03-15 09:07:00,
2013-03-15 05:13:00,29.6,15.4,30.00,WNW,302,5.0,10.0,55,0.00,,CLR,0.00,VWS V14.01,2013-03-15 09:13:00,
2013-03-15 05:18:00,29.6,15.4,30.00,NW,317,6.0,10.0,55,0.00,,CLR,0.00,VWS V14.01,2013-03-15 09:18:00,
2013-03-15 05:23:00,29.6,15.4,30.00,WNW,283,4.0,10.0,55,0.00,,CLR,0.00,VWS V14.01,2013-03-15 09:23:00,
2013-03-15 05:28:00,29.7,15.5,30.00,WNW,284,2.0,10.0,55,0.00,,CLR,0.00,VWS V14.01,2013-03-15 09:28:00,
2013-03-15 05:33:00,29.7,15.5,30.00,NW,309,1.0,6.0,55,0.00,,CLR,0.00,VWS V14.01,2013-03-15 09:33:00,
2013-03-15 05:38:00,29.7,15.5,30.00,WNW,298,3.0,11.0,55,0.00,,CLR,0.00,VWS V14.01,2013-03-15 09:38:00,
2013-03-15 05:43:00,29.7,15.5,30.01,West,280,5.0,11.0,55,0.00,,CLR,0.00,VWS V14.01,2013-03-15 09:43:00,
2013-03-15 05:48:00,29.7,15.5,30.01,West,264,0.0,11.0,55,0.00,,CLR,0.00,VWS V14.01,2013-03-15 09:48:00,
2013-03-15 05:53:00,29.6,15.8,30.01,WNW,286,4.0,11.0,56,0.00,,CLR,0.00,VWS V14.01,2013-03-15 09:53:00,
2013-03-15 05:58:00,29.6,15.8,30.01,NW,325,0.0,11.0,56,0.00,,CLR,0.00,VWS V14.01,2013-03-15 09:58:00,
2013-03-15 06:03:00,29.5,15.8,30.02,NW,305,2.0,5.0,56,0.00,,CLR,0.00,VWS V14.01,2013-03-15 10:03:00,
2013-03-15 06:08:00,29.4,15.7,30.02,WNW,293,3.0,7.0,56,0.00,,CLR,0.00,VWS V14.01,2013-03-15 10:08:00,
2013-03-15 06:13:00,29.3,16.0,30.02,WNW,303,2.0,7.0,57,0.00,,CLR,0.00,VWS V14.01,2013-03-15 10:13:00,
2013-03-15 06:18:00,29.2,15.9,30.02,West,265,1.0,7.0,57,0.00,,CLR,0.00,VWS V14.01,2013-03-15 10:18:00,
2013-03-15 06:23:00,29.0,15.7,30.02,WNW,300,2.0,7.0,57,0.00,,CLR,0.00,VWS V14.01,2013-03-15 10:23:00,
2013-03-15 06:28:00,28.9,16.0,30.03,NW,306,2.0,7.0,58,0.00,,CLR,0.00,VWS V14.01,2013-03-15 10:28:00,
2013-03-15 06:33:00,28.7,15.8,30.02,West,266,0.0,3.0,58,0.00,,CLR,0.00,VWS V14.01,2013-03-15 10:33:00,
2013-03-15 06:38:00,28.5,16.0,30.02,NW,312,1.0,3.0,59,0.00,,CLR,0.00,VWS V14.01,2013-03-15 10:38:00,
2013-03-15 06:43:00,28.4,15.9,30.02,NW,313,1.0,3.0,59,0.00,,CLR,0.00,VWS V14.01,2013-03-15 10:43:00,
2013-03-15 06:48:00,28.3,15.8,30.02,WNW,303,4.0,4.0,59,0.00,,CLR,0.00,VWS V14.01,2013-03-15 10:48:00,
2013-03-15 06:53:00,28.2,15.7,30.02,NW,326,2.0,4.0,59,0.00,,CLR,0.00,VWS V14.01,2013-03-15 10:53:00,
2013-03-15 06:58:00,28.1,16.0,30.02,WNW,297,3.0,5.0,60,0.00,,CLR,0.00,VWS V14.01,2013-03-15 10:58:00,
2013-03-15 07:03:00,28.1,15.6,30.02,WNW,295,1.0,4.0,59,0.00,,CLR,0.00,VWS V14.01,2013-03-15 11:03:00,
2013-03-15 07:08:00,28.1,15.6,30.02,WNW,288,3.0,5.0,59,0.00,,CLR,0.00,VWS V14.01,2013-03-15 11:08:00,
2013-03-15 07:13:00,28.1,15.6,30.02,West,269,1.0,5.0,59,0.00,,CLR,0.00,VWS V14.01,2013-03-15 11:13:00,
2013-03-15 07:18:00,28.1,15.6,30.02,WNW,296,3.0,5.0,59,0.00,,CLR,0.00,VWS V14.01,2013-03-15 11:18:00,
2013-03-15 07:23:00,28.0,15.5,30.02,NW,321,3.0,5.0,59,0.00,,CLR,0.00,VWS V14.01,2013-03-15 11:23:00,
2013-03-15 07:28:00,28.1,16.0,30.03,WNW,300,2.0,5.0,60,0.00,,CLR,0.00,VWS V14.01,2013-03-15 11:28:00,
2013-03-15 07:33:00,28.1,16.0,30.03,NW,313,3.0,4.0,60,0.00,,CLR,0.00,VWS V14.01,2013-03-15 11:33:00,
2013-03-15 07:38:00,28.2,15.7,30.03,WNW,298,2.0,7.0,59,0.00,,CLR,0.00,VWS V14.01,2013-03-15 11:38:00,
2013-03-15 07:43:00,28.4,15.9,30.03,NW,304,0.0,7.0,59,0.00,,CLR,0.00,VWS V14.01,2013-03-15 11:43:00,
2013-03-15 07:48:00,28.6,16.1,30.03,WNW,286,1.0,7.0,59,0.00,,CLR,0.00,VWS V14.01,2013-03-15 11:48:00,
2013-03-15 07:53:00,28.8,15.9,30.03,WSW,255,1.0,7.0,58,0.00,,CLR,0.00,VWS V14.01,2013-03-15 11:53:00,
2013-03-15 07:58:00,29.0,16.1,30.03,WNW,282,1.0,7.0,58,0.00,,CLR,0.00,VWS V14.01,2013-03-15 11:58:00,
2013-03-15 08:03:00,29.2,16.3,30.03,WNW,298,2.0,4.0,58,0.00,,CLR,0.00,VWS V14.01,2013-03-15 12:03:00,
2013-03-15 08:08:00,29.5,16.2,30.03,West,264,3.0,6.0,57,0.00,,CLR,0.00,VWS V14.01,2013-03-15 12:08:00,
2013-03-15 08:13:00,29.7,15.9,30.02,West,273,2.0,6.0,56,0.00,,CLR,0.00,VWS V14.01,2013-03-15 12:13:00,
2013-03-15 08:18:00,29.7,15.9,30.02,West,279,3.0,7.0,56,0.00,,CLR,0.00,VWS V14.01,2013-03-15 12:18:00,
2013-03-15 08:23:00,29.8,16.4,30.02,NNE,17,2.0,7.0,57,0.00,,CLR,0.00,VWS V14.01,2013-03-15 12:23:00,
2013-03-15 08:28:00,30.2,16.4,30.02,WNW,296,4.0,7.0,56,0.00,,CLR,0.00,VWS V14.01,2013-03-15 12:28:00,
2013-03-15 08:33:00,30.6,16.4,30.03,SW,225,3.0,7.0,55,0.00,,CLR,0.00,VWS V14.01,2013-03-15 12:33:00,
2013-03-15 08:38:00,31.1,16.8,30.02,SW,221,3.0,7.0,55,0.00,,CLR,0.00,VWS V14.01,2013-03-15 12:38:00,
2013-03-15 08:43:00,31.6,16.5,30.02,NW,305,1.0,7.0,53,0.00,,CLR,0.00,VWS V14.01,2013-03-15 12:43:00,
2013-03-15 08:48:00,31.9,16.3,30.02,WSW,250,2.0,7.0,52,0.00,,CLR,0.00,VWS V14.01,2013-03-15 12:48:00,
2013-03-15 08:53:00,32.0,15.9,30.02,WNW,297,1.0,7.0,51,0.00,,CLR,0.00,VWS V14.01,2013-03-15 12:53:00,
2013-03-15 08:58:00,32.2,16.1,30.02,West,262,3.0,7.0,51,0.00,,CLR,0.00,VWS V14.01,2013-03-15 12:58:00,
2013-03-15 09:03:00,32.3,16.2,30.02,WNW,302,4.0,6.0,51,0.00,,CLR,0.00,VWS V14.01,2013-03-15 13:03:00,
2013-03-15 09:08:00,32.3,15.8,30.01,WSW,257,4.0,6.0,50,0.00,,CLR,0.00,VWS V14.01,2013-03-15 13:08:00,
2013-03-15 09:13:00,32.4,16.3,30.01,WNW,292,2.0,8.0,51,0.00,,CLR,0.00,VWS V14.01,2013-03-15 13:13:00,
2013-03-15 09:18:00,32.5,15.9,30.01,WNW,298,2.0,8.0,50,0.00,,CLR,0.00,VWS V14.01,2013-03-15 13:18:00,
2013-03-15 09:23:00,32.8,16.2,30.01,West,271,0.0,8.0,50,0.00,,CLR,0.00,VWS V14.01,2013-03-15 13:23:00,
2013-03-15 09:28:00,33.3,15.7,30.01,WSW,243,4.0,8.0,48,0.00,,CLR,0.00,VWS V14.01,2013-03-15 13:28:00,
2013-03-15 09:33:00,33.8,16.2,30.00,WNW,292,2.0,7.0,48,0.00,,CLR,0.00,VWS V14.01,2013-03-15 13:33:00,
2013-03-15 09:39:00,34.0,15.9,30.00,NW,315,8.0,8.0,47,0.00,,CLR,0.00,VWS V14.01,2013-03-15 13:39:00,
2013-03-15 09:44:00,34.2,15.6,30.00,WNW,302,5.0,10.0,46,0.00,,CLR,0.00,VWS V14.01,2013-03-15 13:44:00,
2013-03-15 09:49:00,34.4,15.8,30.00,WNW,291,4.0,10.0,46,0.00,,CLR,0.00,VWS V14.01,2013-03-15 13:49:00,
2013-03-15 09:54:00,35.2,16.0,29.99,West,270,3.0,11.0,45,0.00,,CLR,0.00,VWS V14.01,2013-03-15 13:54:00,
2013-03-15 09:59:00,35.8,16.0,29.99,WNW,286,2.0,11.0,44,0.00,,CLR,0.00,VWS V14.01,2013-03-15 13:59:00,
2013-03-15 10:04:00,36.2,15.9,29.99,WNW,290,3.0,6.0,43,0.00,,CLR,0.00,VWS V14.01,2013-03-15 14:04:00,
2013-03-15 10:09:00,36.6,16.8,29.99,WNW,283,1.0,7.0,44,0.00,,CLR,0.00,VWS V14.01,2013-03-15 14:09:00,
2013-03-15 10:14:00,36.6,16.2,29.99,NNW,334,1.0,7.0,43,0.00,,CLR,0.00,VWS V14.01,2013-03-15 14:14:00,
2013-03-15 10:19:00,36.7,16.9,29.98,WSW,256,3.0,7.0,44,0.00,,CLR,0.00,VWS V14.01,2013-03-15 14:19:00,
2013-03-15 10:24:00,37.2,17.8,29.98,WSW,258,3.0,7.0,45,0.00,,CLR,0.00,VWS V14.01,2013-03-15 14:24:00,
2013-03-15 10:29:00,37.9,17.4,29.98,SW,221,1.0,7.0,43,0.00,,CLR,0.00,VWS V14.01,2013-03-15 14:29:00,
2013-03-15 10:34:00,38.5,19.0,29.98,SW,224,3.0,6.0,45,0.00,,CLR,0.00,VWS V14.01,2013-03-15 14:34:00,
2013-03-15 10:39:00,38.6,19.1,29.97,WSW,238,1.0,6.0,45,0.00,,CLR,0.00,VWS V14.01,2013-03-15 14:39:00,
2013-03-15 10:44:00,39.3,20.8,29.97,WSW,257,2.0,7.0,47,0.00,,CLR,0.00,VWS V14.01,2013-03-15 14:44:00,
2013-03-15 10:49:00,39.6,20.5,29.97,SW,219,1.0,8.0,46,0.00,,CLR,0.00,VWS V14.01,2013-03-15 14:49:00,
2013-03-15 10:54:00,39.8,21.2,29.96,NW,315,1.0,8.0,47,0.00,,CLR,0.00,VWS V14.01,2013-03-15 14:54:00,
2013-03-15 10:59:00,40.5,21.4,29.96,West,269,3.0,11.0,46,0.00,,CLR,0.00,VWS V14.01,2013-03-15 14:59:00,
2013-03-15 11:04:00,40.7,21.5,29.95,North,349,2.0,8.0,46,0.00,,BKN100,0.00,VWS V14.01,2013-03-15 15:04:00,
2013-03-15 11:09:00,40.5,21.4,29.95,SSW,192,4.0,9.0,46,0.00,,BKN100,0.00,VWS V14.01,2013-03-15 15:09:00,
2013-03-15 11:14:00,40.5,21.9,29.94,WSW,257,5.0,10.0,47,0.00,,BKN100,0.00,VWS V14.01,2013-03-15 15:14:00,
2013-03-15 11:19:00,40.3,21.2,29.94,NW,306,2.0,12.0,46,0.00,,BKN100,0.00,VWS V14.01,2013-03-15 15:19:00,
2013-03-15 11:24:00,40.3,21.2,29.94,SSE,164,3.0,12.0,46,0.00,,BKN100,0.00,VWS V14.01,2013-03-15 15:24:00,
2013-03-15 11:29:00,40.7,22.1,29.94,SSE,154,6.0,12.0,47,0.00,,BKN100,0.00,VWS V14.01,2013-03-15 15:29:00,
2013-03-15 11:34:00,41.5,22.3,29.93,SW,217,5.0,7.0,46,0.00,,BKN100,0.00,VWS V14.01,2013-03-15 15:34:00,
2013-03-15 11:39:00,42.4,22.6,29.92,SSE,157,3.0,8.0,45,0.00,,BKN100,0.00,VWS V14.01,2013-03-15 15:39:00,
2013-03-15 11:44:00,42.3,22.0,29.92,West,276,5.0,12.0,44,0.00,,BKN100,0.00,VWS V14.01,2013-03-15 15:44:00,
2013-03-15 11:49:00,41.9,21.6,29.92,SW,223,4.0,14.0,44,0.00,,BKN100,0.00,VWS V14.01,2013-03-15 15:49:00,
2013-03-15 11:54:00,41.3,21.6,29.92,SW,216,2.0,14.0,45,0.00,,BKN100,0.00,VWS V14.01,2013-03-15 15:54:00,
2013-03-15 11:59:00,41.3,22.6,29.92,WNW,303,6.0,14.0,47,0.00,,BKN100,0.00,VWS V14.01,2013-03-15 15:59:00,
2013-03-15 12:04:00,41.9,22.1,29.91,SSW,209,7.0,11.0,45,0.00,,OVC100,0.00,VWS V14.01,2013-03-15 16:04:00,
2013-03-15 12:09:00,42.0,22.2,29.91,NW,304,3.0,13.0,45,0.00,,OVC100,0.00,VWS V14.01,2013-03-15 16:09:00,
2013-03-15 12:14:00,42.1,22.8,29.91,WSW,246,6.0,13.0,46,0.00,,OVC100,0.00,VWS V14.01,2013-03-15 16:14:00,
2013-03-15 12:20:00,42.2,22.9,29.90,WSW,256,2.0,13.0,46,0.00,,OVC100,0.00,VWS V14.01,2013-03-15 16:20:00,
2013-03-15 12:25:00,42.3,22.5,29.90,South,188,5.0,13.0,45,0.00,,OVC100,0.00,VWS V14.01,2013-03-15 16:25:00,
2013-03-15 12:30:00,42.4,22.6,29.90,WNW,297,5.0,5.0,45,0.00,,OVC100,0.00,VWS V14.01,2013-03-15 16:30:00,
2013-03-15 12:35:00,42.5,22.1,29.90,SW,223,5.0,12.0,44,0.00,,OVC100,0.00,VWS V14.01,2013-03-15 16:35:00,
2013-03-15 12:40:00,42.0,22.2,29.90,WSW,251,3.0,12.0,45,0.00,,OVC100,0.00,VWS V14.01,2013-03-15 16:40:00,
2013-03-15 12:45:00,42.3,23.0,29.89,SSW,200,1.0,12.0,46,0.00,,OVC100,0.00,VWS V14.01,2013-03-15 16:45:00,
2013-03-15 12:50:00,42.6,22.8,29.89,SE,138,3.0,12.0,45,0.00,,OVC100,0.00,VWS V14.01,2013-03-15 16:50:00,
2013-03-15 12:55:00,43.4,23.0,29.89,NW,306,4.0,12.0,44,0.00,,OVC100,0.00,VWS V14.01,2013-03-15 16:55:00,
2013-03-15 13:00:00,44.2,23.7,29.89,SW,234,4.0,4.0,44,0.00,,OVC060,0.00,VWS V14.01,2013-03-15 17:00:00,
2013-03-15 13:05:00,43.7,23.2,29.88,WNW,289,7.0,11.0,44,0.00,,OVC060,0.00,VWS V14.01,2013-03-15 17:05:00,
2013-03-15 13:10:00,43.5,23.0,29.88,WSW,252,3.0,11.0,44,0.00,,OVC060,0.00,VWS V14.01,2013-03-15 17:10:00,
2013-03-15 13:15:00,43.1,23.2,29.88,WSW,244,7.0,11.0,45,0.00,,OVC060,0.00,VWS V14.01,2013-03-15 17:15:00,
2013-03-15 13:20:00,42.7,23.4,29.88,SSW,208,8.0,15.0,46,0.00,,OVC060,0.00,VWS V14.01,2013-03-15 17:20:00,
2013-03-15 13:25:00,42.5,23.2,29.88,South,187,3.0,15.0,46,0.00,,OVC060,0.00,VWS V14.01,2013-03-15 17:25:00,
2013-03-15 13:30:00,42.4,23.6,29.88,SW,236,4.0,4.0,47,0.00,,OVC060,0.00,VWS V14.01,2013-03-15 17:30:00,
2013-03-15 13:35:00,42.3,23.5,29.87,SW,223,2.0,8.0,47,0.00,,OVC060,0.00,VWS V14.01,2013-03-15 17:35:00,
2013-03-15 13:40:00,42.5,24.2,29.87,SSE,157,5.0,8.0,48,0.00,,OVC060,0.00,VWS V14.01,2013-03-15 17:40:00,
2013-03-15 13:45:00,42.5,23.7,29.86,SSW,192,5.0,11.0,47,0.00,,OVC060,0.00,VWS V14.01,2013-03-15 17:45:00,
2013-03-15 13:50:00,42.7,24.4,29.86,WSW,244,1.0,11.0,48,0.00,,OVC060,0.00,VWS V14.01,2013-03-15 17:50:00,
2013-03-15 13:55:00,42.9,24.1,29.85,SSE,149,7.0,11.0,47,0.00,,OVC060,0.00,VWS V14.01,2013-03-15 17:55:00,
2013-03-15 14:00:00,43.3,24.9,29.85,West,272,5.0,5.0,48,0.00,,OVC050,0.00,VWS V14.01,2013-03-15 18:00:00,
2013-03-15 14:05:00,43.3,24.4,29.85,SW,232,4.0,15.0,47,0.00,,OVC050,0.00,VWS V14.01,2013-03-15 18:05:00,
2013-03-15 14:10:00,43.5,25.1,29.84,WSW,237,3.0,15.0,48,0.00,,OVC050,0.00,VWS V14.01,2013-03-15 18:10:00,
2013-03-15 14:15:00,43.8,25.4,29.85,NW,306,8.0,16.0,48,0.00,,OVC050,0.00,VWS V14.01,2013-03-15 18:15:00,
2013-03-15 14:20:00,44.2,24.8,29.84,SSW,207,4.0,16.0,46,0.00,,OVC050,0.00,VWS V14.01,2013-03-15 18:20:00,
2013-03-15 14:25:00,44.4,25.5,29.84,SW,235,7.0,16.0,47,0.00,,OVC050,0.00,VWS V14.01,2013-03-15 18:25:00,
2013-03-15 14:30:00,44.6,25.6,29.84,WSW,251,5.0,11.0,47,0.00,,OVC050,0.00,VWS V14.01,2013-03-15 18:30:00,
2013-03-15 14:35:00,44.9,25.4,29.84,SW,234,4.0,11.0,46,0.00,,OVC050,0.00,VWS V14.01,2013-03-15 18:35:00,
2013-03-15 14:40:00,44.7,25.2,29.83,WSW,238,4.0,14.0,46,0.00,,OVC050,0.00,VWS V14.01,2013-03-15 18:40:00,
2013-03-15 14:45:00,44.5,25.5,29.83,NNW,344,4.0,14.0,47,0.00,,OVC050,0.00,VWS V14.01,2013-03-15 18:45:00,
2013-03-15 14:50:00,44.5,25.5,29.83,WNW,293,4.0,14.0,47,0.00,,OVC050,0.00,VWS V14.01,2013-03-15 18:50:00,
2013-03-15 14:55:00,44.5,25.5,29.82,SW,218,6.0,14.0,47,0.00,,OVC050,0.00,VWS V14.01,2013-03-15 18:55:00,
2013-03-15 15:00:00,44.4,25.5,29.82,SW,217,8.0,9.0,47,0.00,,OVC090,0.00,VWS V14.01,2013-03-15 19:00:00,
2013-03-15 15:05:00,44.3,25.4,29.81,SE,134,5.0,12.0,47,0.00,,OVC090,0.00,VWS V14.01,2013-03-15 19:05:00,
2013-03-15 15:10:00,44.4,25.5,29.82,SW,234,1.0,12.0,47,0.00,,OVC090,0.00,VWS V14.01,2013-03-15 19:10:00,
2013-03-15 15:15:00,44.6,25.6,29.81,West,272,7.0,14.0,47,0.00,,OVC090,0.00,VWS V14.01,2013-03-15 19:15:00,
2013-03-15 15:20:00,44.6,25.6,29.81,South,169,4.0,14.0,47,0.00,,OVC090,0.00,VWS V14.01,2013-03-15 19:20:00,
2013-03-15 15:25:00,44.6,25.1,29.81,WSW,240,1.0,14.0,46,0.00,,OVC090,0.00,VWS V14.01,2013-03-15 19:25:00,
2013-03-15 15:30:00,44.7,25.7,29.80,WSW,253,2.0,7.0,47,0.00,,OVC090,0.00,VWS V14.01,2013-03-15 19:30:00,
2013-03-15 15:35:00,45.2,26.2,29.80,SSW,198,6.0,12.0,47,0.00,,OVC090,0.00,VWS V14.01,2013-03-15 19:35:00,
2013-03-15 15:41:00,45.8,25.7,29.80,SW,232,4.0,15.0,45,0.00,,OVC090,0.00,VWS V14.01,2013-03-15 19:41:00,
2013-03-15 15:46:00,46.3,26.1,29.79,SSW,211,5.0,15.0,45,0.00,,OVC090,0.00,VWS V14.01,2013-03-15 19:46:00,
2013-03-15 15:51:00,46.5,26.3,29.79,West,265,4.0,16.0,45,0.00,,OVC090,0.00,VWS V14.01,2013-03-15 19:51:00,
2013-03-15 15:56:00,47.1,26.9,29.79,WSW,254,7.0,16.0,45,0.00,,OVC090,0.00,VWS V14.01,2013-03-15 19:56:00,
2013-03-15 16:01:00,48.6,26.6,29.78,NW,308,3.0,11.0,42,0.00,,OVC060,0.00,VWS V14.01,2013-03-15 20:01:00,
2013-03-15 16:06:00,49.2,27.1,29.78,South,191,2.0,14.0,42,0.00,,OVC060,0.00,VWS V14.01,2013-03-15 20:06:00,
2013-03-15 16:11:00,49.8,27.1,29.78,West,280,7.0,14.0,41,0.00,,OVC060,0.00,VWS V14.01,2013-03-15 20:11:00,
2013-03-15 16:16:00,49.2,26.5,29.77,West,269,3.0,14.0,41,0.00,,OVC060,0.00,VWS V14.01,2013-03-15 20:16:00,
2013-03-15 16:21:00,49.1,27.0,29.77,NW,319,8.0,14.0,42,0.00,,OVC060,0.00,VWS V14.01,2013-03-15 20:21:00,
2013-03-15 16:26:00,48.8,26.7,29.76,South,180,1.0,14.0,42,0.00,,OVC060,0.00,VWS V14.01,2013-03-15 20:26:00,
2013-03-15 16:31:00,48.7,27.2,29.77,WSW,248,9.0,9.0,43,0.00,,OVC060,0.00,VWS V14.01,2013-03-15 20:31:00,
2013-03-15 16:36:00,48.3,26.9,29.76,SW,217,2.0,11.0,43,0.00,,OVC060,0.00,VWS V14.01,2013-03-15 20:36:00,
2013-03-15 16:42:00,48.5,27.0,29.76,South,182,6.0,11.0,43,0.00,,OVC060,0.00,VWS V14.01,2013-03-15 20:42:00,
2013-03-15 16:47:00,48.8,27.3,29.76,WNW,283,6.0,15.0,43,0.00,,OVC060,0.00,VWS V14.01,2013-03-15 20:47:00,
2013-03-15 16:52:00,48.6,26.6,29.76,SSE,168,5.0,15.0,42,0.00,,OVC060,0.00,VWS V14.01,2013-03-15 20:52:00,
2013-03-15 16:57:00,48.5,26.5,29.75,South,171,8.0,15.0,42,0.00,,OVC060,0.00,VWS V14.01,2013-03-15 20:57:00,
2013-03-15 17:02:00,48.6,27.1,29.75,South,180,5.0,9.0,43,0.00,,OVC060,0.00,VWS V14.01,2013-03-15 21:02:00,
2013-03-15 17:07:00,48.7,27.2,29.75,SSW,213,1.0,9.0,43,0.00,,OVC060,0.00,VWS V14.01,2013-03-15 21:07:00,
2013-03-15 17:12:00,48.8,26.7,29.75,NW,321,6.0,9.0,42,0.00,,OVC060,0.00,VWS V14.01,2013-03-15 21:12:00,
2013-03-15 17:17:00,48.9,27.4,29.75,NW,306,3.0,12.0,43,0.00,,OVC060,0.00,VWS V14.01,2013-03-15 21:17:00,
2013-03-15 17:22:00,49.3,27.2,29.75,SW,222,5.0,12.0,42,0.00,,OVC060,0.00,VWS V14.01,2013-03-15 21:22:00,
2013-03-15 17:27:00,49.2,27.1,29.74,West,263,4.0,12.0,42,0.00,,OVC060,0.00,VWS V14.01,2013-03-15 21:27:00,
2013-03-15 17:32:00,49.2,27.1,29.74,WSW,246,6.0,10.0,42,0.00,,OVC060,0.00,VWS V14.01,2013-03-15 21:32:00,
2013-03-15 17:37:00,49.1,27.0,29.74,SW,229,2.0,11.0,42,0.00,,OVC060,0.00,VWS V14.01,2013-03-15 21:37:00,
2013-03-15 17:42:00,49.3,27.8,29.74,West,259,2.0,11.0,43,0.00,,OVC060,0.00,VWS V14.01,2013-03-15 21:42:00,
2013-03-15 17:47:00,49.4,27.3,29.74,West,263,4.0,11.0,42,0.00,,OVC060,0.00,VWS V14.01,2013-03-15 21:47:00,
2013-03-15 17:52:00,49.4,27.3,29.74,West,262,1.0,11.0,42,0.00,,OVC060,0.00,VWS V14.01,2013-03-15 21:52:00,
2013-03-15 17:57:00,49.4,27.9,29.74,NW,326,0.0,11.0,43,0.00,,OVC060,0.00,VWS V14.01,2013-03-15 21:57:00,
2013-03-15 18:02:00,49.5,28.0,29.74,SW,215,0.0,3.0,43,0.00,,OVC060,0.00,VWS V14.01,2013-03-15 22:02:00,
2013-03-15 18:07:00,49.6,28.0,29.74,WNW,299,1.0,6.0,43,0.00,,OVC060,0.00,VWS V14.01,2013-03-15 22:07:00,
2013-03-15 18:12:00,49.6,28.0,29.74,SW,225,1.0,7.0,43,0.00,,OVC060,0.00,VWS V14.01,2013-03-15 22:12:00,
2013-03-15 18:17:00,49.6,28.6,29.74,SSW,209,1.0,7.0,44,0.00,,OVC060,0.00,VWS V14.01,2013-03-15 22:17:00,
2013-03-15 18:22:00,49.7,28.1,29.74,NW,317,2.0,7.0,43,0.00,,OVC060,0.00,VWS V14.01,2013-03-15 22:22:00,
2013-03-15 18:27:00,49.8,28.2,29.74,WNW,302,0.0,7.0,43,0.00,,OVC060,0.00,VWS V14.01,2013-03-15 22:27:00,
2013-03-15 18:32:00,49.8,28.8,29.74,SW,216,3.0,5.0,44,0.00,,OVC060,0.00,VWS V14.01,2013-03-15 22:32:00,
2013-03-15 18:37:00,49.7,28.1,29.74,WSW,255,2.0,5.0,43,0.00,,OVC060,0.00,VWS V14.01,2013-03-15 22:37:00,
2013-03-15 18:42:00,49.8,28.2,29.74,WNW,302,2.0,5.0,43,0.00,,OVC060,0.00,VWS V14.01,2013-03-15 22:42:00,
2013-03-15 18:48:00,49.8,28.2,29.74,West,275,2.0,5.0,43,0.00,,OVC060,0.00,VWS V14.01,2013-03-15 22:48:00,
2013-03-15 18:53:00,49.8,28.8,29.74,West,269,1.0,5.0,44,0.00,,OVC060,0.00,VWS V14.01,2013-03-15 22:53:00,
2013-03-15 18:58:00,49.8,28.2,29.74,WSW,246,0.0,5.0,43,0.00,,OVC060,0.00,VWS V14.01,2013-03-15 22:58:00,
2013-03-15 19:03:00,49.8,28.2,29.74,West,281,1.0,4.0,43,0.00,,OVC065,0.00,VWS V14.01,2013-03-15 23:03:00,
2013-03-15 19:08:00,49.7,28.7,29.74,West,268,4.0,4.0,44,0.00,,OVC065,0.00,VWS V14.01,2013-03-15 23:08:00,
2013-03-15 19:13:00,49.7,28.7,29.74,WNW,289,0.0,4.0,44,0.00,,OVC065,0.00,VWS V14.01,2013-03-15 23:13:00,
2013-03-15 19:18:00,49.6,28.6,29.74,NW,308,0.0,4.0,44,0.00,,OVC065,0.00,VWS V14.01,2013-03-15 23:18:00,
2013-03-15 19:23:00,49.6,28.6,29.74,WSW,242,1.0,4.0,44,0.00,,OVC065,0.00,VWS V14.01,2013-03-15 23:23:00,
2013-03-15 19:28:00,49.6,28.6,29.74,West,266,2.0,4.0,44,0.00,,OVC065,0.00,VWS V14.01,2013-03-15 23:28:00,
2013-03-15 19:33:00,49.6,28.6,29.75,West,279,0.0,4.0,44,0.00,,OVC065,0.00,VWS V14.01,2013-03-15 23:33:00,
2013-03-15 19:38:00,49.5,29.1,29.74,SW,221,1.0,4.0,45,0.00,,OVC065,0.00,VWS V14.01,2013-03-15 23:38:00,
2013-03-15 19:43:00,49.6,29.1,29.74,WSW,238,3.0,6.0,45,0.00,,OVC065,0.00,VWS V14.01,2013-03-15 23:43:00,
2013-03-15 19:48:00,49.9,30.5,29.74,West,272,0.0,6.0,47,0.00,,OVC065,0.00,VWS V14.01,2013-03-15 23:48:00,
2013-03-15 19:53:00,50.1,30.1,29.74,WNW,286,3.0,6.0,46,0.00,,OVC065,0.00,VWS V14.01,2013-03-15 23:53:00,
2013-03-15 19:58:00,50.2,30.2,29.75,West,264,3.0,6.0,46,0.00,,OVC065,0.00,VWS V14.01,2013-03-15 23:58:00,
2013-03-15 20:03:00,50.4,30.4,29.75,WSW,258,3.0,6.0,46,0.00,,OVC090,0.00,VWS V14.01,2013-03-16 00:03:00,
2013-03-15 20:08:00,50.7,30.7,29.75,WSW,242,1.0,7.0,46,0.00,,OVC090,0.00,VWS V14.01,2013-03-16 00:08:00,
2013-03-15 20:13:00,50.6,30.6,29.75,West,279,2.0,7.0,46,0.00,,OVC090,0.00,VWS V14.01,2013-03-16 00:13:00,
2013-03-15 20:18:00,50.7,30.7,29.75,WNW,296,1.0,7.0,46,0.00,,OVC090,0.00,VWS V14.01,2013-03-16 00:18:00,
2013-03-15 20:23:00,50.6,30.6,29.75,WNW,299,2.0,7.0,46,0.00,,OVC090,0.00,VWS V14.01,2013-03-16 00:23:00,
2013-03-15 20:28:00,50.4,31.0,29.75,NW,312,3.0,7.0,47,0.00,,OVC090,0.00,VWS V14.01,2013-03-16 00:28:00,
2013-03-15 20:33:00,50.2,30.8,29.76,NW,310,2.0,4.0,47,0.00,,OVC090,0.00,VWS V14.01,2013-03-16 00:33:00,
2013-03-15 20:38:00,50.1,30.7,29.76,West,279,3.0,5.0,47,0.00,,OVC090,0.00,VWS V14.01,2013-03-16 00:38:00,
2013-03-15 20:43:00,50.0,30.6,29.76,WNW,288,3.0,5.0,47,0.00,,OVC090,0.00,VWS V14.01,2013-03-16 00:43:00,
2013-03-15 20:48:00,49.9,30.5,29.76,WSW,252,0.0,5.0,47,0.00,,OVC090,0.00,VWS V14.01,2013-03-16 00:48:00,
2013-03-15 20:53:00,49.7,30.8,29.76,WNW,300,3.0,5.0,48,0.00,,OVC090,0.00,VWS V14.01,2013-03-16 00:53:00,
2013-03-15 20:58:00,49.5,31.1,29.76,WNW,302,4.0,5.0,49,0.00,,OVC090,0.00,VWS V14.01,2013-03-16 00:58:00,
2013-03-15 21:03:00,49.6,31.2,29.76,WNW,292,7.0,8.0,49,0.00,,OVC085,0.00,VWS V14.01,2013-03-16 01:03:00,
2013-03-15 21:08:00,49.6,31.2,29.76,NW,321,4.0,8.0,49,0.00,,OVC085,0.00,VWS V14.01,2013-03-16 01:08:00,
2013-03-15 21:13:00,49.7,31.3,29.76,West,273,2.0,12.0,49,0.00,,OVC085,0.00,VWS V14.01,2013-03-16 01:13:00,
2013-03-15 21:18:00,49.7,31.8,29.76,WNW,284,2.0,12.0,50,0.00,,OVC085,0.00,VWS V14.01,2013-03-16 01:18:00,
2013-03-15 21:23:00,49.6,31.7,29.76,WSW,244,5.0,12.0,50,0.00,,OVC085,0.00,VWS V14.01,2013-03-16 01:23:00,
2013-03-15 21:28:00,49.5,32.1,29.77,WNW,299,5.0,12.0,51,0.00,,OVC085,0.00,VWS V14.01,2013-03-16 01:28:00,
2013-03-15 21:33:00,49.4,32.0,29.77,West,279,4.0,6.0,51,0.00,,OVC085,0.00,VWS V14.01,2013-03-16 01:33:00,
2013-03-15 21:38:00,49.2,31.9,29.77,WNW,294,4.0,8.0,51,0.00,,OVC085,0.00,VWS V14.01,2013-03-16 01:38:00,
2013-03-15 21:43:00,49.2,31.9,29.77,WNW,296,7.0,8.0,51,0.00,,OVC085,0.00,VWS V14.01,2013-03-16 01:43:00,
2013-03-15 21:48:00,49.0,32.2,29.77,NW,315,5.0,13.0,52,0.00,,OVC085,0.00,VWS V14.01,2013-03-16 01:48:00,
2013-03-15 21:53:00,48.9,32.5,29.77,WNW,296,6.0,13.0,53,0.00,,OVC085,0.00,VWS V14.01,2013-03-16 01:53:00,
2013-03-15 21:58:00,48.9,32.5,29.78,West,271,3.0,13.0,53,0.00,,OVC085,0.00,VWS V14.01,2013-03-16 01:58:00,
2013-03-15 22:04:00,48.8,32.4,29.78,WNW,295,2.0,9.0,53,0.00,,BKN060,0.00,VWS V14.01,2013-03-16 02:04:00,
2013-03-15 22:09:00,48.7,32.3,29.78,NW,310,1.0,9.0,53,0.00,,BKN060,0.00,VWS V14.01,2013-03-16 02:09:00,
2013-03-15 22:14:00,48.4,32.5,29.78,WNW,300,3.0,9.0,54,0.00,,BKN060,0.00,VWS V14.01,2013-03-16 02:14:00,
2013-03-15 22:19:00,48.3,32.4,29.78,WNW,289,1.0,9.0,54,0.00,,BKN060,0.00,VWS V14.01,2013-03-16 02:19:00,
2013-03-15 22:24:00,48.2,32.3,29.78,WNW,289,0.0,9.0,54,0.00,,BKN060,0.00,VWS V14.01,2013-03-16 02:24:00,
2013-03-15 22:29:00,48.0,32.6,29.78,WNW,289,0.0,9.0,55,0.00,,BKN060,0.00,VWS V14.01,2013-03-16 02:29:00,
2013-03-15 22:34:00,47.7,32.8,29.79,NW,326,3.0,4.0,56,0.00,,BKN060,0.00,VWS V14.01,2013-03-16 02:34:00,
2013-03-15 22:39:00,47.4,32.5,29.79,West,276,2.0,7.0,56,0.00,,BKN060,0.00,VWS V14.01,2013-03-16 02:39:00,
2013-03-15 22:44:00,47.3,32.8,29.79,NW,309,4.0,7.0,57,0.00,,BKN060,0.00,VWS V14.01,2013-03-16 02:44:00,
2013-03-15 22:49:00,47.2,32.8,29.79,NW,305,2.0,7.0,57,0.00,,BKN060,0.00,VWS V14.01,2013-03-16 02:49:00,
2013-03-15 22:54:00,47.2,33.2,29.79,NW,304,1.0,7.0,58,0.00,,BKN060,0.00,VWS V14.01,2013-03-16 02:54:00,
2013-03-15 22:59:00,47.1,32.7,29.79,NW,311,5.0,10.0,57,0.00,,BKN060,0.00,VWS V14.01,2013-03-16 02:59:00,
2013-03-15 23:04:00,47.1,32.7,29.79,NW,310,3.0,4.0,57,0.00,,SCT055,0.00,VWS V14.01,2013-03-16 03:04:00,
2013-03-15 23:09:00,47.1,33.1,29.79,WNW,291,3.0,5.0,58,0.00,,SCT055,0.00,VWS V14.01,2013-03-16 03:09:00,
2013-03-15 23:14:00,47.0,32.6,29.79,West,276,3.0,9.0,57,0.00,,SCT055,0.00,VWS V14.01,2013-03-16 03:14:00,
2013-03-15 23:19:00,46.9,32.9,29.79,NW,314,1.0,9.0,58,0.00,,SCT055,0.00,VWS V14.01,2013-03-16 03:19:00,
2013-03-15 23:24:00,46.8,32.8,29.79,NW,306,4.0,9.0,58,0.00,,SCT055,0.00,VWS V14.01,2013-03-16 03:24:00,
2013-03-15 23:29:00,46.6,32.6,29.79,NW,323,3.0,9.0,58,0.00,,SCT055,0.00,VWS V14.01,2013-03-16 03:29:00,
2013-03-15 23:34:00,46.5,32.5,29.79,NW,323,0.0,4.0,58,0.00,,SCT055,0.00,VWS V14.01,2013-03-16 03:34:00,
2013-03-15 23:39:00,46.2,32.7,29.79,NW,322,2.0,4.0,59,0.00,,SCT055,0.00,VWS V14.01,2013-03-16 03:39:00,
2013-03-15 23:44:00,46.0,32.5,29.79,NNW,334,0.0,4.0,59,0.00,,SCT055,0.00,VWS V14.01,2013-03-16 03:44:00,
2013-03-15 23:49:00,45.8,32.3,29.79,NW,309,0.0,4.0,59,0.00,,SCT055,0.00,VWS V14.01,2013-03-16 03:49:00,
2013-03-15 23:54:00,45.6,32.5,29.79,NW,323,1.0,5.0,60,0.00,,SCT055,0.00,VWS V14.01,2013-03-16 03:54:00,
2013-03-15 23:59:00,45.4,32.3,29.80,NW,318,4.0,8.0,60,0.00,,SCT055,0.00,VWS V14.01,2013-03-16 03:59:00,